Morgantown, WV

8:41 PM EST on January 20, 2017 (GMT -0500)
Morgantown Municipal-Hart

Weather History for KMGW - December, 2008

Change the Weather History Date:

Saturday, December 6, 2008

  Actual Average Record
Temperature  
Mean Temperature 23 °F 37 °F  
Max Temperature 30 °F 45 °F 73 °F (1998)
Min Temperature 15 °F 30 °F 9 °F (2007)
Degree Days  
Heating Degree Days 42 28  
Month to date heating degree days 196 161  
Since 1 July heating degree days 1300 1209  
Cooling Degree Days 0 0  
Month to date cooling degree days 0 0  
Year to date cooling degree days 738 814  
Moisture  
Dew Point 21 °F    
Average Humidity 75    
Maximum Humidity 92    
Minimum Humidity 58    
Precipitation  
Precipitation T in 0.11 in 1.09 in (2013)
Month to date precipitation 0.15 0.62  
Year to date precipitation 40.79 39.54  
Snow  
Snow 0.00 in - - ()
Month to date snowfall 0.0  
Snow Depth 0.00 in    
Sea Level Pressure  
Sea Level Pressure 29.94 in    
Wind  
Wind Speed 5 mph (SSW)    
Max Wind Speed 15 mph    
Max Gust Speed 23 mph    
Visibility 6 miles    
Events Snow    
T = Trace of Precipitation, MM = Missing Value Source: NWS Daily Summary

Daily Weather History Graph

Daily Weather History Graph

Search for Another Location

Airport or City:

Trip Planner

Search our weather history database for the weather conditions in past years. The results will help you decide how hot, cold, wet, or windy it might be!

Date:

Astronomy

Dec. 06, 2008 Rise Set
Actual Time 7:26 AM EST 4:55 PM EST
Civil Twilight 6:56 AM EST 5:25 PM EST
Nautical Twilight 6:22 AM EST 5:59 PM EST
Astronomical Twilight 5:50 AM EST 6:31 PM EST
Moon 12:48 PM EST (12/6) 12:23 AM EST (12/6)
Length of Visible Light 10h 28m
Length of Day
9h 28m
First Quarter, 59% of the Moon is Illuminated
Dec 6
First Quarter
Dec 12
Full
Dec 19
Last Quarter
Dec 27
New
Jan 4
First Quarter

Hourly Weather History & Observations

Time (EST) Temp. Windchill Dew Point Humidity Pressure Visibility Wind Dir Wind Speed Gust Speed Precip Events Conditions
12:53 AM 15.1 °F - 10.9 °F 84% 30.23 in 10.0 mi Calm Calm - N/A   Clear
1:53 AM 15.1 °F - 10.9 °F 84% 30.20 in 10.0 mi Calm Calm - N/A   Clear
2:53 AM 17.1 °F 11.7 °F 12.0 °F 81% 30.19 in 10.0 mi South 3.5 mph - N/A   Clear
3:53 AM 18.0 °F - 12.0 °F 78% 30.17 in 10.0 mi Calm Calm - N/A   Clear
4:53 AM 18.0 °F - 12.9 °F 81% 30.15 in 10.0 mi Calm Calm - N/A   Clear
5:53 AM 19.0 °F - 12.9 °F 77% 30.14 in 10.0 mi Calm Calm - N/A   Clear
6:53 AM 19.0 °F 13.9 °F 14.0 °F 81% 30.13 in 10.0 mi South 3.5 mph - N/A   Clear
7:53 AM 21.0 °F 16.2 °F 14.0 °F 74% 30.11 in 10.0 mi South 3.5 mph - N/A   Partly Cloudy
8:53 AM 23.0 °F 17.0 °F 14.0 °F 68% 30.10 in 10.0 mi SSW 4.6 mph - N/A   Clear
9:53 AM 25.0 °F 18.1 °F 14.0 °F 63% 30.08 in 10.0 mi South 5.8 mph - N/A   Partly Cloudy
10:53 AM 27.0 °F 20.5 °F 15.1 °F 61% 30.06 in 10.0 mi SSW 5.8 mph - N/A   Overcast
11:53 AM 28.0 °F 18.6 °F 15.1 °F 58% 30.02 in 10.0 mi SSW 10.4 mph 16.1 mph N/A   Overcast
12:50 PM 26.6 °F 16.8 °F 19.4 °F 74% 29.95 in 2.0 mi SSW 10.4 mph 19.6 mph 0.00 in Snow Light Snow
12:53 PM 27.0 °F 19.5 °F 19.0 °F 72% 30.00 in 1.8 mi SW 6.9 mph 17.3 mph 0.00 in Snow Light Snow
1:18 PM 26.6 °F 18.2 °F 19.4 °F 74% 29.92 in 2.0 mi SSW 8.1 mph - 0.00 in Snow Light Snow
1:41 PM 26.6 °F 20.0 °F 21.2 °F 80% 29.91 in 1.8 mi South 5.8 mph - 0.00 in Snow Light Snow
1:53 PM 27.0 °F 19.5 °F 21.9 °F 81% 29.96 in 2.0 mi Variable 6.9 mph - 0.00 in Snow Light Snow
2:00 PM 26.6 °F 19.1 °F 21.2 °F 80% 29.90 in 1.5 mi SSW 6.9 mph - 0.00 in Snow Light Snow
2:32 PM 26.6 °F 20.0 °F 23.0 °F 86% 29.89 in 1.5 mi SSW 5.8 mph - 0.00 in Snow Light Snow
2:43 PM 26.6 °F 22.6 °F 23.0 °F 86% 29.88 in 3.0 mi Variable 3.5 mph - 0.00 in Snow Light Snow
2:53 PM 27.0 °F 19.5 °F 23.0 °F 85% 29.93 in 4.0 mi South 6.9 mph - 0.00 in Snow Light Snow
3:06 PM 28.4 °F 22.2 °F 23.0 °F 80% 29.87 in 2.0 mi SSW 5.8 mph - 0.00 in Snow Light Snow
3:32 PM 28.4 °F 21.2 °F 23.0 °F 80% 29.86 in 3.0 mi Variable 6.9 mph - 0.00 in Snow Light Snow
3:53 PM 28.0 °F 19.3 °F 23.0 °F 81% 29.91 in 10.0 mi South 9.2 mph - 0.00 in   Overcast
4:12 PM 28.4 °F 21.2 °F 23.0 °F 80% 29.85 in 9.0 mi Variable 6.9 mph - N/A   Overcast
4:41 PM 28.4 °F 23.3 °F 24.8 °F 86% 29.84 in 1.2 mi South 4.6 mph - 0.00 in Snow Light Snow
4:53 PM 28.0 °F 22.8 °F 25.0 °F 88% 29.89 in 2.0 mi South 4.6 mph - 0.00 in Snow Light Snow
5:01 PM 28.4 °F 22.2 °F 24.8 °F 86% 29.84 in 1.5 mi South 5.8 mph - 0.00 in Snow Light Snow
5:16 PM 28.4 °F 23.3 °F 24.8 °F 86% 29.83 in 3.0 mi Variable 4.6 mph - 0.00 in Snow Light Snow
5:24 PM 28.4 °F 23.3 °F 24.8 °F 86% 29.83 in 2.5 mi South 4.6 mph - 0.00 in Snow Light Snow
5:31 PM 28.4 °F 23.3 °F 24.8 °F 86% 29.83 in 4.0 mi South 4.6 mph - 0.00 in Snow Light Snow
5:53 PM 28.9 °F 21.1 °F 25.0 °F 85% 29.88 in 5.0 mi SSW 8.1 mph - 0.00 in Snow Light Snow
6:51 PM 28.4 °F 20.4 °F 26.6 °F 93% 29.83 in 2.0 mi SSW 8.1 mph - 0.00 in Snow Light Snow
6:53 PM 28.9 °F 22.8 °F 26.1 °F 89% 29.88 in 2.5 mi SSW 5.8 mph - 0.00 in Snow Light Snow
7:01 PM 28.4 °F 21.2 °F 26.6 °F 93% 29.83 in 8.0 mi SSW 6.9 mph - 0.00 in Snow Light Snow
7:25 PM 30.2 °F 21.9 °F 26.6 °F 86% 29.83 in 9.0 mi SW 9.2 mph - 0.00 in Snow Light Snow
7:33 PM 30.2 °F 23.4 °F 26.6 °F 86% 29.83 in 9.0 mi SSW 6.9 mph 17.3 mph 0.00 in Snow Light Snow
7:42 PM 30.2 °F 22.6 °F 26.6 °F 86% 29.83 in 9.0 mi SW 8.1 mph - 0.00 in Snow Light Snow
7:53 PM 30.0 °F 20.5 °F 25.0 °F 82% 29.87 in 9.0 mi SW 11.5 mph 17.3 mph 0.00 in Snow Light Snow
8:11 PM 30.2 °F 21.9 °F 24.8 °F 80% 29.83 in 9.0 mi SW 9.2 mph 18.4 mph 0.00 in Snow Light Snow
8:53 PM 30.0 °F 24.1 °F 24.1 °F 79% 29.87 in 9.0 mi Variable 5.8 mph - 0.00 in Snow Light Snow
9:53 PM 30.0 °F 24.1 °F 24.1 °F 79% 29.86 in 10.0 mi SW 5.8 mph - 0.00 in Snow Light Snow
10:53 PM 28.9 °F 19.8 °F 25.0 °F 85% 29.86 in 4.0 mi SSW 10.4 mph - 0.00 in Snow Light Snow
11:32 PM 28.4 °F 19.7 °F 24.8 °F 86% 29.80 in 2.5 mi SW 9.2 mph - 0.00 in Snow Light Snow
11:53 PM 28.9 °F 21.9 °F 26.1 °F 89% 29.84 in 1.5 mi SSW 6.9 mph - 0.00 in Snow Light Snow